Terminal Aerodrome Forecast
Issued by NWS Austin/San Antonio, TX

Home | Current Version | Previous Version | Text Only | Print | Product List | Glossary On
Versions: 1 2 3 4 5 6 7 8 9 10 11 12 13 14 15 16 17 18 19 20 21 22 23 24 25 26 27
000
FTUS44 KEWX 192300
TAFAUS
TAF
KAUS 192320Z 2000/2106 14010KT P6SM BKN060
     FM200800 16006KT 4SM BR BKN012
     FM201100 15005KT 4SM BR OVC008
     FM201500 16010KT 5SM BR OVC015
     FM201700 15010KT P6SM BKN025
     FM202100 16012KT P6SM SCT030 BKN050=

USA.gov is the U.S. government's official web portal to all federal, state and local government web resources and services.